Location: Firnhaberau
(48.4049°N, 10.8963°E)
Time: 03:24:25
(UTC+00:00)

ARIANE 5 R/B - Pass Details

Date: 07 June 2020
Orbit: 748 x 795 km, 98.6° (Epoch: 09 July)

Event Time Altitude Azimuth Distance (km) Brightness Sun altitude
Rises 01:12:32 0° 24° (NNE) 3,222 7.7 -14.1°
Reaches altitude 10° 01:15:12 10° 37° (NE) 2,286 6.4 -13.9°
Maximum altitude 01:19:24 26° 94° (E) 1,444 4.2 -13.6°
Drops below altitude 10° 01:23:33 10° 150° (SSE) 2,262 4.6 -13.2°
Enters shadow 01:25:02 - 159° (SSE) 2,772 5.0 -13.1°
